Location: Bernadets
(43.3537°N, 0.3167°E)
Time: 01:10:58
(UTC+00:00)

In-Cosmos 22 Rocket - Pass Details

Date: 24 October 2021
Orbit: 790 x 888 km, 81.2° (Epoch: 06 December)

Event Time Altitude Azimuth Distance (km) Brightness Sun altitude
Rises 18:32:01 0° 351° (N) 3,305 7.4 -17.1°
Reaches altitude 10° 18:34:26 10° 354° (N) 2,367 6.6 -17.6°
Maximum altitude 18:39:44 70° 78° (ENE) 844 3.9 -18.5°
Drops below altitude 10° 18:45:01 10° 162° (SSE) 2,358 6.3 -19.5°
Sets 18:47:24 0° 165° (SSE) 3,291 7.1 -19.9°
